Powrót do katalogu

BREEZE-M DEB

AktywnyHEO
NORAD 38187·DEBRIS·🇷🇺 Russia

Wystrzelony Nov 25, 2011 z Baikonur Cosmodrome

Loading…

Następne Przeloty (najbliższe 24 godziny)

TLE

ŚwieżeSource: Space-Track

Epoka: Sep 12, 2026, 20:42 UTC

1 38187U 11069D   26255.86266081 -.00000138  00000-0  00000-0 0  9994
2 38187   1.6485  34.7342 3802772 340.2024   8.4029  1.71974027 90549

Śledź BREEZE-M DEB w czasie rzeczywistym z AllMySat

Download on the App Store